| time (UTC) | temp C | wind direction | speed KPH | gust KPH | rain 1hr cm | rain 24hr cm | rain mn cm | humidity % | barometer mb |
| 20260505035505 | 7 | 346 | 3.2 | 6.4 | 0.00 | 0.08 | 0.08 | 39 | 1015.5 |
| 20260505035003 | 7 | 328 | 1.6 | 6.4 | 0.00 | 0.08 | 0.08 | 39 | 1015.4 |
| 20260505034511 | 7 | 360 | 3.2 | 8.0 | 0.00 | 0.08 | 0.08 | 39 | 1015.2 |
| 20260505034003 | 7 | 333 | 3.2 | 8.0 | 0.00 | 0.08 | 0.08 | 39 | 1015.2 |
| 20260505033504 | 7 | 351 | 3.2 | 6.4 | 0.00 | 0.08 | 0.08 | 39 | 1015.2 |
| 20260505033020 | 7 | 302 | 4.8 | 8.0 | 0.00 | 0.08 | 0.08 | 38 | 1015.3 |
| 20260505032507 | 7 | 327 | 3.2 | 8.0 | 0.00 | 0.08 | 0.08 | 38 | 1015.2 |
| 20260505032011 | 7 | 322 | 3.2 | 8.0 | 0.00 | 0.08 | 0.08 | 38 | 1015.1 |
| 20260505031521 | 7 | 344 | 4.8 | 8.0 | 0.00 | 0.08 | 0.08 | 38 | 1015.0 |
| 20260505031014 | 7 | 331 | 1.6 | 4.8 | 0.00 | 0.08 | 0.08 | 38 | 1015.0 |
| 20260505030511 | 7 | 301 | 3.2 | 4.8 | 0.00 | 0.08 | 0.08 | 38 | 1015.1 |
| 20260505030021 | 7 | 309 | 1.6 | 6.4 | 0.00 | 0.08 | 0.08 | 38 | 1015.0 |
| 20260505025507 | 7 | 319 | 1.6 | 6.4 | 0.00 | 0.08 | 0.08 | 38 | 1015.0 |
| 20260505025004 | 7 | 302 | 3.2 | 8.0 | 0.00 | 0.08 | 0.08 | 37 | 1015.1 |
| 20260505024512 | 7 | 325 | 3.2 | 8.0 | 0.00 | 0.08 | 0.08 | 37 | 1015.1 |
| 20260505024002 | 7 | 352 | 3.2 | 6.4 | 0.00 | 0.08 | 0.08 | 37 | 1015.0 |
| 20260505023505 | 7 | 332 | 0.0 | 3.2 | 0.00 | 0.08 | 0.08 | 37 | 1015.1 |
| 20260505023019 | 7 | 342 | 3.2 | 3.2 | 0.00 | 0.08 | 0.08 | 38 | 1015.2 |
| 20260505022504 | 8 | 331 | 1.6 | 3.2 | 0.00 | 0.08 | 0.08 | 37 | 1015.2 |
| 20260505022008 | 8 | 296 | 1.6 | 3.2 | 0.00 | 0.08 | 0.08 | 36 | 1015.2 |
| 20260505021520 | 8 | 290 | 0.0 | 3.2 | 0.00 | 0.08 | 0.08 | 35 | 1015.2 |
| 20260505021006 | 8 | 290 | 0.0 | 3.2 | 0.00 | 0.08 | 0.08 | 35 | 1015.0 |
| 20260505020506 | 9 | 285 | 0.0 | 3.2 | 0.00 | 0.08 | 0.08 | 33 | 1015.2 |
| 20260505020024 | 9 | 285 | 0.0 | 0.0 | 0.00 | 0.08 | 0.08 | 33 | 1015.2 |
| 20260505015510 | 9 | 285 | 0.0 | 3.2 | 0.00 | 0.08 | 0.08 | 33 | 1014.9 |
| 20260505015017 | 9 | 285 | 0.0 | 6.4 | 0.00 | 0.08 | 0.08 | 33 | 1014.8 |
| 20260505014508 | 10 | 285 | 0.0 | 6.4 | 0.00 | 0.08 | 0.08 | 32 | 1015.0 |
| 20260505014005 | 10 | 265 | 1.6 | 9.7 | 0.00 | 0.08 | 0.08 | 32 | 1015.2 |
| 20260505013505 | 10 | 269 | 4.8 | 9.7 | 0.00 | 0.08 | 0.08 | 32 | 1015.1 |
| 20260505013012 | 10 | 275 | 4.8 | 11.3 | 0.00 | 0.08 | 0.08 | 32 | 1015.1 |
| 20260505012506 | 10 | 261 | 3.2 | 14.5 | 0.00 | 0.08 | 0.08 | 32 | 1015.1 |
| 20260505012004 | 10 | 279 | 4.8 | 16.1 | 0.00 | 0.08 | 0.08 | 32 | 1015.1 |
| 20260505011517 | 10 | 267 | 8.0 | 16.1 | 0.00 | 0.08 | 0.08 | 31 | 1015.0 |
| 20260505011008 | 10 | 277 | 4.8 | 17.7 | 0.00 | 0.08 | 0.08 | 31 | 1015.0 |
| 20260505010507 | 10 | 263 | 12.9 | 17.7 | 0.00 | 0.08 | 0.08 | 30 | 1015.2 |
| 20260505010023 | 10 | 309 | 4.8 | 16.1 | 0.00 | 0.08 | 0.08 | 30 | 1015.2 |
| 20260505005506 | 10 | 268 | 4.8 | 14.5 | 0.00 | 0.08 | 0.08 | 30 | 1015.2 |
| 20260505005008 | 11 | 287 | 4.8 | 16.1 | 0.00 | 0.08 | 0.08 | 30 | 1015.1 |
| 20260505004525 | 11 | 264 | 8.0 | 17.7 | 0.00 | 0.08 | 0.08 | 29 | 1015.1 |
| 20260505004010 | 11 | 284 | 6.4 | 17.7 | 0.00 | 0.08 | 0.08 | 29 | 1015.1 |
| 20260505003514 | 11 | 257 | 6.4 | 17.7 | 0.00 | 0.08 | 0.08 | 29 | 1015.1 |
| 20260505003011 | 11 | 309 | 8.0 | 20.9 | 0.00 | 0.08 | 0.08 | 29 | 1015.2 |
| 20260505002504 | 11 | 259 | 9.7 | 20.9 | 0.00 | 0.08 | 0.08 | 29 | 1015.4 |
| 20260505002006 | 11 | 268 | 12.9 | 19.3 | 0.00 | 0.08 | 0.08 | 29 | 1015.5 |
| 20260505001514 | 11 | 271 | 8.0 | 19.3 | 0.00 | 0.08 | 0.08 | 29 | 1015.4 |
| 20260505001005 | 11 | 293 | 8.0 | 19.3 | 0.00 | 0.08 | 0.08 | 28 | 1015.4 |
| 20260505000506 | 11 | 301 | 8.0 | 19.3 | 0.00 | 0.08 | 0.08 | 29 | 1015.4 |
| 20260505000020 | 11 | 275 | 6.4 | 20.9 | 0.00 | 0.08 | 0.08 | 28 | 1015.6 |
| 20260504235507 | 11 | 263 | 14.5 | 20.9 | 0.00 | 0.08 | 0.08 | 27 | 1015.6 |
| 20260504235007 | 11 | 295 | 11.3 | 27.4 | 0.00 | 0.08 | 0.08 | 26 | 1015.6 |
| 20260504234525 | 11 | 254 | 12.9 | 27.4 | 0.00 | 0.08 | 0.08 | 26 | 1015.6 |
| 20260504234008 | 11 | 272 | 11.3 | 24.1 | 0.00 | 0.08 | 0.08 | 26 | 1015.8 |
| 20260504233506 | 11 | 278 | 11.3 | 29.0 | 0.00 | 0.08 | 0.08 | 28 | 1015.7 |
| 20260504233028 | 11 | 279 | 12.9 | 29.0 | 0.00 | 0.08 | 0.08 | 28 | 1015.7 |
| 20260504232510 | 11 | 275 | 12.9 | 29.0 | 0.00 | 0.08 | 0.08 | 29 | 1015.8 |
| 20260504232003 | 11 | 222 | 17.7 | 29.0 | 0.00 | 0.08 | 0.08 | 30 | 1015.9 |
| 20260504231513 | 11 | 284 | 9.7 | 25.7 | 0.00 | 0.08 | 0.08 | 31 | 1015.8 |
| 20260504231004 | 11 | 261 | 16.1 | 22.5 | 0.00 | 0.08 | 0.08 | 31 | 1015.9 |
| 20260504230504 | 12 | 267 | 14.5 | 25.7 | 0.00 | 0.08 | 0.08 | 31 | 1016.0 |
| 20260504230018 | 11 | 281 | 12.9 | 25.7 | 0.00 | 0.08 | 0.08 | 30 | 1015.9 |
| 20260504225509 | 11 | 258 | 11.3 | 19.3 | 0.00 | 0.08 | 0.08 | 31 | 1016.0 |
| 20260504225010 | 11 | 238 | 14.5 | 27.4 | 0.00 | 0.08 | 0.08 | 30 | 1016.0 |
| 20260504224523 | 11 | 272 | 14.5 | 27.4 | 0.00 | 0.08 | 0.08 | 29 | 1016.0 |
| 20260504224007 | 11 | 275 | 12.9 | 27.4 | 0.00 | 0.08 | 0.08 | 28 | 1016.0 |
| 20260504223508 | 11 | 252 | 12.9 | 20.9 | 0.00 | 0.08 | 0.08 | 30 | 1015.8 |
| 20260504223026 | 12 | 298 | 6.4 | 17.7 | 0.00 | 0.08 | 0.08 | 30 | 1015.8 |
| 20260504222507 | 12 | 332 | 9.7 | 19.3 | 0.00 | 0.08 | 0.08 | 30 | 1015.8 |
| 20260504222014 | 12 | 298 | 8.0 | 19.3 | 0.00 | 0.08 | 0.08 | 32 | 1015.8 |
| 20260504221528 | 12 | 238 | 11.3 | 24.1 | 0.00 | 0.08 | 0.08 | 31 | 1016.0 |
| 20260504221011 | 12 | 250 | 16.1 | 24.1 | 0.00 | 0.08 | 0.08 | 29 | 1016.2 |
| 20260504220504 | 12 | 274 | 9.7 | 24.1 | 0.00 | 0.08 | 0.08 | 29 | 1016.0 |
| 20260504220021 | 12 | 257 | 12.9 | 25.7 | 0.00 | 0.08 | 0.08 | 29 | 1015.9 |
| 20260504215504 | 12 | 330 | 12.9 | 25.7 | 0.00 | 0.08 | 0.08 | 31 | 1016.1 |
| 20260504215006 | 12 | 252 | 9.7 | 24.1 | 0.00 | 0.08 | 0.08 | 31 | 1016.1 |
| 20260504214519 | 12 | 242 | 14.5 | 29.0 | 0.00 | 0.08 | 0.08 | 31 | 1016.1 |
| 20260504214008 | 12 | 254 | 17.7 | 29.0 | 0.00 | 0.08 | 0.08 | 33 | 1016.1 |
| 20260504213510 | 12 | 219 | 16.1 | 27.4 | 0.00 | 0.08 | 0.08 | 33 | 1016.3 |
| 20260504213023 | 12 | 241 | 14.5 | 29.0 | 0.00 | 0.08 | 0.08 | 33 | 1016.4 |
| 20260504212511 | 12 | 284 | 11.3 | 32.2 | 0.00 | 0.08 | 0.08 | 34 | 1016.5 |
| 20260504212002 | 12 | 226 | 19.3 | 32.2 | 0.00 | 0.08 | 0.08 | 32 | 1016.5 |
| 20260504211511 | 12 | 259 | 12.9 | 22.5 | 0.00 | 0.08 | 0.08 | 31 | 1016.4 |
| 20260504211003 | 12 | 311 | 12.9 | 22.5 | 0.00 | 0.08 | 0.08 | 35 | 1016.6 |
| 20260504210505 | 12 | 254 | 11.3 | 24.1 | 0.00 | 0.08 | 0.08 | 35 | 1016.6 |
| 20260504210012 | 12 | 275 | 9.7 | 25.7 | 0.00 | 0.08 | 0.08 | 38 | 1016.6 |
| 20260504205506 | 12 | 239 | 17.7 | 25.7 | 0.00 | 0.08 | 0.08 | 38 | 1016.7 |
| 20260504205007 | 12 | 261 | 9.7 | 25.7 | 0.00 | 0.08 | 0.08 | 39 | 1016.5 |
| 20260504204520 | 12 | 252 | 14.5 | 25.7 | 0.00 | 0.08 | 0.08 | 38 | 1016.7 |
| 20260504204007 | 11 | 258 | 8.0 | 19.3 | 0.00 | 0.08 | 0.08 | 40 | 1016.8 |
| 20260504203508 | 11 | 332 | 12.9 | 29.0 | 0.00 | 0.08 | 0.08 | 41 | 1017.0 |
| 20260504203024 | 11 | 300 | 16.1 | 29.0 | 0.00 | 0.08 | 0.08 | 40 | 1017.0 |
| 20260504202507 | 12 | 271 | 11.3 | 24.1 | 0.00 | 0.08 | 0.08 | 39 | 1017.0 |
| 20260504202011 | 12 | 223 | 14.5 | 25.7 | 0.00 | 0.08 | 0.08 | 39 | 1017.2 |
| 20260504201525 | 11 | 266 | 16.1 | 25.7 | 0.00 | 0.08 | 0.08 | 41 | 1017.2 |
| 20260504201003 | 11 | 234 | 12.9 | 19.3 | 0.00 | 0.08 | 0.08 | 42 | 1017.1 |
| 20260504200504 | 11 | 279 | 8.0 | 19.3 | 0.00 | 0.08 | 0.08 | 44 | 1017.1 |
| 20260504200021 | 11 | 263 | 8.0 | 17.7 | 0.00 | 0.08 | 0.08 | 44 | 1017.1 |
| 20260504195502 | 11 | 252 | 8.0 | 19.3 | 0.00 | 0.08 | 0.08 | 46 | 1017.2 |
| 20260504195008 | 11 | 271 | 8.0 | 19.3 | 0.00 | 0.08 | 0.08 | 44 | 1017.3 |
| 20260504194520 | 11 | 312 | 8.0 | 16.1 | 0.00 | 0.08 | 0.08 | 46 | 1017.3 |
| 20260504194009 | 11 | 239 | 9.7 | 25.7 | 0.00 | 0.08 | 0.08 | 47 | 1017.2 |
| 20260504193506 | 11 | 253 | 12.9 | 25.7 | 0.00 | 0.08 | 0.08 | 46 | 1017.3 |
| 20260504193020 | 11 | 253 | 12.9 | 20.9 | 0.00 | 0.08 | 0.08 | 46 | 1017.2 |
| 20260504192506 | 10 | 323 | 8.0 | 17.7 | 0.00 | 0.08 | 0.08 | 47 | 1017.2 |
| 20260504192010 | 10 | 314 | 9.7 | 17.7 | 0.00 | 0.08 | 0.08 | 45 | 1017.3 |
| 20260504191537 | 11 | 277 | 8.0 | 19.3 | 0.00 | 0.08 | 0.08 | 45 | 1017.3 |
| 20260504191008 | 11 | 273 | 12.9 | 20.9 | 0.00 | 0.08 | 0.08 | 45 | 1017.3 |
| 20260504190507 | 11 | 287 | 8.0 | 20.9 | 0.00 | 0.08 | 0.08 | 46 | 1017.5 |
| 20260504190026 | 11 | 216 | 9.7 | 17.7 | 0.00 | 0.08 | 0.08 | 46 | 1017.6 |
| 20260504185506 | 11 | 262 | 6.4 | 17.7 | 0.00 | 0.08 | 0.08 | 46 | 1017.5 |
| 20260504185004 | 11 | 265 | 4.8 | 17.7 | 0.00 | 0.08 | 0.08 | 46 | 1017.5 |
| 20260504184514 | 11 | 250 | 11.3 | 17.7 | 0.00 | 0.08 | 0.08 | 46 | 1017.6 |
| 20260504184004 | 10 | 200 | 9.7 | 19.3 | 0.00 | 0.08 | 0.08 | 47 | 1017.6 |
| 20260504183507 | 10 | 248 | 8.0 | 19.3 | 0.00 | 0.08 | 0.08 | 47 | 1017.6 |
| 20260504183034 | 10 | 270 | 9.7 | 17.7 | 0.00 | 0.08 | 0.08 | 47 | 1017.6 |
| 20260504182506 | 10 | 248 | 6.4 | 16.1 | 0.00 | 0.08 | 0.08 | 49 | 1017.8 |
| 20260504182010 | 10 | 257 | 8.0 | 16.1 | 0.00 | 0.08 | 0.08 | 48 | 1017.7 |
| 20260504181526 | 10 | 276 | 6.4 | 20.9 | 0.00 | 0.08 | 0.08 | 51 | 1017.8 |
| 20260504181007 | 10 | 263 | 11.3 | 20.9 | 0.00 | 0.08 | 0.08 | 49 | 1017.9 |
| 20260504180515 | 10 | 254 | 11.3 | 16.1 | 0.00 | 0.08 | 0.08 | 51 | 1018.0 |
| 20260504180026 | 10 | 256 | 6.4 | 19.3 | 0.00 | 0.08 | 0.08 | 50 | 1018.1 |
| 20260504175507 | 10 | 262 | 12.9 | 19.3 | 0.00 | 0.08 | 0.08 | 51 | 1018.0 |
| 20260504175009 | 10 | 258 | 9.7 | 19.3 | 0.00 | 0.08 | 0.08 | 51 | 1017.9 |
| 20260504174526 | 10 | 223 | 8.0 | 14.5 | 0.00 | 0.08 | 0.08 | 53 | 1017.9 |
| 20260504174004 | 10 | 212 | 6.4 | 14.5 | 0.00 | 0.08 | 0.08 | 53 | 1017.9 |
| 20260504173503 | 10 | 249 | 6.4 | 14.5 | 0.00 | 0.08 | 0.08 | 54 | 1017.9 |
| 20260504173015 | 10 | 247 | 6.4 | 22.5 | 0.00 | 0.08 | 0.08 | 53 | 1018.0 |
| 20260504172509 | 10 | 271 | 14.5 | 22.5 | 0.00 | 0.08 | 0.08 | 53 | 1018.1 |
| 20260504172009 | 10 | 255 | 8.0 | 12.9 | 0.00 | 0.08 | 0.08 | 54 | 1018.2 |
| 20260504171520 | 10 | 184 | 1.6 | 11.3 | 0.00 | 0.08 | 0.08 | 54 | 1018.1 |
| 20260504171010 | 10 | 244 | 8.0 | 14.5 | 0.00 | 0.08 | 0.08 | 54 | 1018.0 |
| 20260504170515 | 10 | 235 | 6.4 | 14.5 | 0.00 | 0.08 | 0.08 | 54 | 1018.0 |
| 20260504151004 | 8 | 277 | 3.2 | 4.8 | 0.00 | 0.08 | 0.08 | 61 | 1018.5 |
| 20260504150509 | 7 | 192 | 1.6 | 8.0 | 0.00 | 0.08 | 0.08 | 60 | 1018.5 |
| 20260504141015 | 5 | 19 | 1.6 | 3.2 | 0.00 | 0.08 | 0.08 | 82 | 1018.8 |
| 20260504140510 | 5 | 5 | 1.6 | 3.2 | 0.00 | 0.08 | 0.08 | 81 | 1018.7 |
| 20260504130513 | 3 | 61 | 1.6 | 1.6 | 0.00 | 0.08 | 0.08 | 79 | 1018.3 |
| 20260504110503 | 3 | 53 | 0.0 | 1.6 | 0.00 | 0.08 | 0.08 | 80 | 1017.9 |
| 20260504100509 | 3 | 352 | 1.6 | 6.4 | 0.00 | 0.08 | 0.08 | 80 | 1017.9 |
| 20260504082003 | 6 | 279 | 4.8 | 22.5 | 0.00 | 0.00 | 0.00 | 65 | 1018.5 |
| 20260504081523 | 6 | 296 | 9.7 | 20.9 | 0.00 | 0.00 | 0.00 | 65 | 1018.5 |
| 20260504081007 | 6 | 80 | 0.0 | 3.2 | 0.00 | 0.00 | 0.00 | 60 | 1017.7 |
| 20260504080508 | 6 | 80 | 0.0 | 1.6 | 0.00 | 0.00 | 0.00 | 61 | 1017.7 |
| 20260504050510 | 6 | 342 | 3.2 | 14.5 | 0.00 | 0.00 | 0.00 | 64 | 1019.7 |
| 20260504050014 | 6 | 345 | 4.8 | 16.1 | 0.00 | 0.00 | 0.00 | 64 | 1019.9 |
| 20260504045505 | 7 | 5 | 9.7 | 16.1 | 0.00 | 0.00 | 0.00 | 63 | 1020.1 |
| 20260504045008 | 7 | 312 | 3.2 | 25.7 | 0.00 | 0.00 | 0.00 | 62 | 1020.1 |
| 20260504044527 | 8 | 316 | 9.7 | 33.8 | 0.00 | 0.00 | 0.00 | 59 | 1020.3 |
| 20260504044009 | 8 | 301 | 17.7 | 33.8 | 0.00 | 0.00 | 0.00 | 54 | 1020.6 |
| 20260504043505 | 9 | 297 | 11.3 | 30.6 | 0.00 | 0.00 | 0.00 | 46 | 1020.3 |
| 20260504043026 | 10 | 231 | 16.1 | 30.6 | 0.00 | 0.00 | 0.00 | 45 | 1020.3 |
| 20260504042508 | 10 | 301 | 12.9 | 29.0 | 0.00 | 0.00 | 0.00 | 44 | 1020.0 |
| 20260504042009 | 10 | 312 | 11.3 | 25.7 | 0.00 | 0.00 | 0.00 | 41 | 1019.6 |
| 20260504041528 | 10 | 331 | 6.4 | 14.5 | 0.00 | 0.00 | 0.00 | 40 | 1019.4 |
| 20260504041008 | 10 | 346 | 4.8 | 12.9 | 0.00 | 0.00 | 0.00 | 40 | 1019.2 |
| 20260504040506 | 10 | 330 | 3.2 | 17.7 | 0.00 | 0.00 | 0.00 | 39 | 1019.2 |
| 20260504040026 | 10 | 325 | 4.8 | 24.1 | 0.00 | 0.00 | 0.00 | 39 | 1019.1 |